CAPE
1490 2079 2174 1817 1649 1278 938 628 581 457 373 537 144 65 48 37 42 51 55 20 22 30 26 51 63 106 72 61 68 36 27 88 100 23 89 169 350 276 222 303 425 287 100
753 1173 1148 1145 1140 933 759 553 205 189 42 1 0 0 0 0 0 0 0 0 0 0 0 17 21 32 112 120 56 119 71 104 81 65 106 205 254 259 200 306 352 337 277
302 400 769 918 795 296 167 203 0 0 0 0 0 0 0 0 0 0 0 0 10 31 39 45 62 96 125 127 187 197 184 235 269 220 117 105 195 272 269 250 316 230 343
280 406 426 307 190 302 402 105 26 0 0 0 0 0 0 0 0 0 0 23 37 28 36 40 54 80 103 128 154 218 158 275 225 280 231 121 96 141 160 217 219 290 272
273 333 339 341 335 362 218 77 14 0 0 0 0 0 0 0 0 8 20 35 43 27 31 17 20 46 26 64 34 75 212 127 78 70 71 98 103 120 155 82 145 229 386
472 500 428 354 430 219 78 0 0 0 0 0 0 0 0 0 0 0 0 35 28 17 19 39 70 52 22 1 0 0 0 51 119 169 68 74 173 157 107 502 236 314 137
358 240 136 262 241 97 0 0 1 1 0 0 0 0 2 35 0 0 0 4 10 9 15 41 46 21 6 0 0 0 0 0 0 46 100 132 162 238 194 326 463 372 282
4 30 87 71 93 62 22 21 19 5 0 7 23 19 37 16 0 0 0 0 8 3 19 28 23 5 0 0 0 2 2 6 16 48 89 107 147 166 157 149 178 219 517
16 17 10 11 43 20 4 3 0 15 34 48 26 29 31 34 3 0 0 1 8 29 26 10 1 1 0 0 0 0 0 0 0 0 0 0 2 4 6 27 112 105 335
18 6 0 0 0 0 0 0 0 0 15 34 59 40 7 20 0 0 0 6 24 32 17 0 0 0 0 0 0 0 0 0 0 0 0 0 9 38 0 4 73 417 432
7 0 0 0 0 0 0 0 13 39 43 62 46 33 17 3 5 0 0 16 19 23 13 20 18 0 0 0 0 16 3 0 0 0 0 0 8 28 36 56 67 143 385
0 0 0 0 0 0 9 36 30 27 29 18 12 34 26 14 0 0 8 25 15 51 50 47 33 0 0 0 0 0 0 7 35 0 45 8 40 31 36 79 65 66 249
0 0 0 0 0 16 28 41 19 22 19 26 32 37 31 27 44 13 11 0 4 0 5 5 0 0 0 0 0 0 0 99 98 88 99 57 60 87 87 10 14 67 69
28 34 27 55 48 24 3 0 3 33 58 55 32 12 21 39 56 32 0 1 1 0 0 0 0 0 0 0 1 13 59 93 83 61 68 93 82 0 22 77 32 410 330
41 29 17 0 0 0 1 0 14 1 8 19 10 24 52 67 30 0 0 0 0 0 0 0 0 2 5 4 1 13 46 37 49 51 78 86 101 0 8 148 211 227 352
22 3 5 0 0 10 10 20 0 0 0 0 0 3 25 8 4 0 0 0 0 0 0 0 1 7 16 5 0 0 23 0 7 6 29 107 150 3 0 8 195 339 370
6 17 2 8 4 8 11 23 20 0 0 0 0 0 0 1 0 0 0 0 0 0 0 4 13 1 0 0 0 0 0 0 0 0 0 57 79 0 2 0 19 216 198
1 2 17 31 21 10 9 1 1 19 40 32 4 0 0 0 0 0 0 0 0 0 7 18 0 0 0 0 0 0 0 0 0 0 0 54 1 0 1 4 0 2 97
62 86 33 1 0 2 4 6 4 27 14 21 39 12 6 0 0 0 1 0 0 2 9 0 0 0 0 0 0 0 66 68 29 21 0 2 1 1 0 2 61 3 5
71 15 9 0 0 3 1 12 34 53 32 23 45 93 134 78 45 24 16 2 1 2 0 0 0 0 0 0 0 59 63 59 52 47 0 0 2 0 0 0 0 2 0
5 0 0 2 2 0 3 16 35 28 38 86 134 32 24 24 32 13 20 4 0 0 0 0 0 0 0 0 0 0 5 15 68 42 0 0 0 0 0 0 2 4 0
104 45 6 5 4 8 19 11 25 7 41 107 68 26 0 16 6 7 11 2 0 0 0 0 0 0 0 0 0 2 4 0 32 46 0 0 0 0 0 0 0 0 0
47 18 20 19 7 1 5 31 78 107 126 127 129 150 39 12 5 3 4 0 0 0 0 0 0 0 0 0 0 0 0 2 3 35 56 0 0 0 0 0 0 0 0
42 52 22 20 37 69 70 87 66 16 9 3 1 5 5 7 4 0 0 0 0 0 0 0 0 0 0 0 0 0 0 0 1 1 70 45 0 0 0 0 0 0 0
0 0 0 0 0 0 0 19 20 10 0 0 0 0 11 4 0 0 0 0 0 0 0 0 0 0 0 0 0 0 0 0 0 0 15 44 31 47 0 0 0 0 0
0 0 0 0 0 0 0 0 0 0 0 0 0 0 0 0 0 0 0 0 0 0 0 0 0 0 0 0 0 0 0 0 0 0 0 83 42 35 23 14 0 8 0
CIN
-28 -57 -41 -32 -26 -33 -38 -41 -29 -28 -32 -7 -59 -56 -69 -55 -70 -56 -33 -27 -15 -13 -12 -5 -4 -2 -0 -0 -3 -2 -0 -0 -0 -0 -0 -0 -0 -0 -0 -0 -0 -5 -0
-25 -66 -90 -64 -35 -32 -18 -22 -53 -49 -86 -5 -0 -0 -0 -0 -4 -0 -0 -0 -0 -0 -0 -5 -4 -4 -4 -1 -0 -0 -0 -0 -0 -0 -0 -0 -0 -0 -0 -0 -0 -0 -0
-77 -213 -101 -39 -34 -82 -89 -53 -23 -0 -0 -0 -0 -0 -0 -0 -0 -0 -0 -0 -8 -7 -9 -11 -11 -7 -7 -4 -6 -3 -0 -0 -0 -0 -0 -1 -0 -0 -0 -0 -0 -0 -0
-103 -89 -70 -89 -107 -53 -22 -50 -35 -0 -0 -0 -0 -0 -0 -0 -0 -0 -0 -13 -12 -16 -28 -28 -21 -17 -15 -8 -4 -1 -0 -0 -0 -0 -0 -0 -7 -0 -0 -0 -0 -0 -0
-117 -72 -69 -61 -41 -21 -35 -19 -14 -0 -0 -0 -0 -0 -0 -0 -0 -26 -28 -20 -22 -21 -18 -22 -20 -42 -81 -42 -19 -2 -0 -0 -0 -0 -0 -1 -2 -2 -0 -2 -1 -0 -0
-29 -22 -21 -29 -15 -26 -32 -0 -0 -0 -0 -0 -0 -0 -0 -0 -0 -0 -0 -27 -26 -20 -17 -12 -16 -32 -33 -59 -0 -0 -2 -3 -3 -4 -0 -0 -1 -0 -8 -0 -0 -0 -0
-22 -40 -91 -48 -29 -43 -0 -0 -15 -7 -0 -0 -0 -0 -12 -41 -0 -0 -0 -27 -27 -15 -5 -4 -6 -2 -27 -0 -0 -0 -0 -0 -0 -2 -0 -7 -4 -0 -1 -0 -0 -0 -0
-50 -123 -90 -61 -35 -34 -29 -19 -29 -54 -7 -32 -49 -59 -57 -64 -0 -0 -0 -4 -22 -4 -1 -1 -3 -14 -0 -0 -0 -0 -0 -0 -0 -0 -0 -0 -0 -0 -9 -30 -10 -0 -0
-112 -112 -99 -56 -25 -16 -2 -4 -0 -47 -47 -49 -69 -69 -63 -56 -13 -0 -0 -4 -5 -0 -0 -7 -3 -0 -0 -0 -0 -0 -0 -0 -0 -0 -0 -0 -1 -1 -1 -6 -21 -6 -0
-0 -95 -53 -0 -0 -0 -0 -0 -0 -7 -70 -49 -47 -73 -21 -58 -0 -0 -0 -3 -0 -0 -0 -0 -0 -0 -0 -0 -0 -0 -0 -0 -0 -0 -0 -0 -5 -1 -0 -0 -0 -0 -0
-2 -0 -0 -0 -0 -0 -0 -0 -91 -69 -68 -52 -52 -51 -53 -47 -21 -0 -0 -8 -0 -0 -0 -0 -0 -0 -0 -0 -0 -0 -1 -0 -0 -0 -0 -0 -17 -4 -0 -0 -0 -4 -0
-0 -0 -0 -0 -0 -0 -65 -73 -72 -58 -48 -65 -67 -23 -5 -11 -0 -0 -7 -2 -0 -3 -0 -0 -2 -0 -0 -0 -0 -0 -0 -0 -1 -0 -0 -0 -0 -0 -0 -0 -0 -0 -0
-0 -0 -0 -0 -0 -90 -64 -45 -21 -41 -22 -13 -4 -0 -0 -0 -0 -1 -0 -0 -0 -0 -0 -0 -0 -0 -0 -0 -0 -0 -1 -0 -0 -0 -0 -0 -0 -0 -0 -0 -0 -0 -0
-76 -81 -86 -60 -67 -87 -63 -0 -12 -12 -1 -0 -0 -0 -0 -0 -0 -7 -0 -0 -0 -0 -0 -0 -0 -0 -0 -0 -0 -4 -0 -0 -0 -0 -0 -0 -0 -0 -0 -0 -0 -0 -0
-77 -72 -48 -0 -0 -0 -20 -0 -14 -11 -9 -2 -3 -0 -0 -0 -3 -0 -0 -0 -0 -0 -0 -0 -0 -0 -0 -0 -0 -2 -0 -2 -0 -0 -0 -0 -0 -0 -0 -0 -0 -0 -0
-44 -18 -0 -0 -0 -12 -23 -2 -0 -0 -0 -0 -0 -3 -9 -7 -34 -0 -0 -0 -0 -0 -0 -0 -0 -0 -0 -0 -0 -0 -0 -0 -6 -11 -2 -0 -0 -0 -0 -1 -0 -0 -0
-0 -0 -2 -50 -32 -51 -24 -12 -0 -0 -0 -0 -0 -0 -0 -1 -0 -0 -0 -0 -0 -0 -0 -0 -0 -0 -0 -0 -0 -0 -0 -0 -0 -0 -0 -0 -0 -0 -0 -0 -0 -0 -0
-16 -17 -18 -2 -13 -33 -50 -1 -0 -0 -0 -0 -3 -0 -0 -0 -0 -0 -0 -0 -0 -0 -0 -0 -0 -0 -0 -0 -0 -0 -0 -0 -0 -0 -0 -0 -0 -0 -0 -0 -0 -0 -3
-16 -0 -0 -0 -0 -35 -81 -41 -7 -0 -2 -2 -0 -2 -13 -0 -0 -0 -1 -0 -0 -0 -0 -0 -0 -0 -0 -0 -0 -0 -0 -0 -0 -0 -0 -0 -0 -0 -0 -0 -0 -1 -0
-0 -0 -0 -0 -0 -56 -20 -21 -4 -2 -2 -0 -0 -0 -2 -3 -0 -0 -5 -5 -0 -0 -0 -0 -0 -0 -0 -0 -0 -0 -0 -0 -0 -0 -0 -0 -1 -0 -0 -0 -0 -0 -0
-25 -0 -0 -11 -2 -0 -0 -8 -0 -1 -1 -1 -0 -2 -1 -24 -1 -10 -3 -7 -0 -0 -0 -0 -0 -0 -0 -0 -0 -0 -0 -0 -0 -0 -0 -0 -0 -0 -0 -0 -0 -0 -0
-8 -26 -15 -0 -1 -0 -0 -0 -5 -11 -0 -1 -12 -13 -3 -4 -0 -6 -5 -9 -0 -0 -0 -0 -0 -0 -0 -0 -0 -0 -0 -0 -0 -0 -0 -0 -0 -0 -0 -0 -0 -0 -0
-7 -8 -3 -1 -0 -0 -0 -8 -15 -0 -0 -0 -1 -0 -13 -1 -0 -0 -0 -0 -0 -0 -0 -0 -0 -0 -0 -0 -0 -0 -0 -0 -0 -0 -0 -0 -0 -0 -0 -0 -0 -0 -0
-0 -1 -3 -7 -7 -1 -9 -2 -6 -2 -0 -10 -0 -0 -0 -0 -0 -0 -0 -0 -0 -0 -0 -0 -0 -0 -0 -0 -0 -0 -0 -0 -0 -0 -0 -0 -0 -0 -0 -0 -0 -0 -0
-0 -0 -0 -0 -0 -0 -0 -20 -11 -3 -0 -0 -0 -0 -0 -0 -0 -0 -0 -0 -0 -0 -0 -0 -0 -0 -0 -0 -0 -0 -0 -0 -0 -0 -4 -0 -0 -0 -0 -0 -0 -0 -0
-0 -0 -0 -0 -0 -0 -0 -0 -0 -0 -0 -0 -0 -0 -0 -0 -0 -0 -0 -0 -0 -0 -0 -0 -0 -0 -0 -0 -0 -0 -0 -0 -0 -0 -0 -0 -0 -0 -1 -0 -0 -0 -0
Wind_Speed
21 14 21 26 25 26 28 30 30 31 35 38 39 nan nan nan nan nan nan nan nan nan nan nan nan 48 nan nan nan nan nan nan 53 nan nan 50 46 45 44 44 41 43 41
30 31 31 30 31 32 32 33 34 39 nan nan nan nan nan nan nan nan nan nan nan nan nan nan nan nan 49 52 nan 56 nan 53 nan nan 50 50 48 47 44 43 45 42 41
51 36 41 37 39 41 44 42 nan nan nan nan nan nan nan nan nan nan nan nan nan nan nan nan nan nan 50 54 51 47 40 36 42 46 46 42 39 42 44 44 43 43 39
44 48 50 47 43 44 42 40 nan nan nan nan nan nan nan nan nan nan nan nan nan nan nan nan nan nan 52 44 32 21 19 22 27 32 37 37 nan 36 38 39 39 43 42
57 54 52 50 46 43 42 nan nan nan nan nan nan nan nan nan nan nan nan nan nan nan nan nan nan nan nan nan nan nan 15 18 nan nan nan nan 27 31 33 nan 37 36 37
53 57 61 67 47 37 nan nan nan nan nan nan nan nan nan nan nan nan nan nan nan nan nan nan nan nan nan nan nan nan nan nan 21 22 nan nan 20 25 28 32 34 33 36
57 52 58 70 34 nan nan nan nan nan nan nan nan nan nan nan nan nan nan nan nan nan nan nan nan nan nan nan nan nan nan nan nan nan 23 21 22 28 30 27 28 31 30
nan nan nan nan nan nan nan nan nan nan nan nan nan nan nan nan nan nan nan nan nan nan nan nan nan nan nan nan nan nan nan nan nan nan nan 23 21 26 26 26 27 28 30
nan nan nan nan nan nan nan nan nan nan nan nan nan nan nan nan nan nan nan nan nan nan nan nan nan nan nan nan nan nan nan nan nan nan nan nan nan nan nan nan 22 23 22
nan nan nan nan nan nan nan nan nan nan nan nan nan nan nan nan nan nan nan nan nan nan nan nan nan nan nan nan nan nan nan nan nan nan nan nan nan nan nan nan nan 22 26
nan nan nan nan nan nan nan nan nan nan nan nan nan nan nan nan nan nan nan nan nan nan nan nan nan nan nan nan nan nan nan nan nan nan nan nan nan nan nan nan nan 19 22
nan nan nan nan nan nan nan nan nan nan nan nan nan nan nan nan nan nan nan nan nan nan nan nan nan nan nan nan nan nan nan nan nan nan nan nan nan nan nan nan nan nan 15
nan nan nan nan nan nan nan nan nan nan nan nan nan nan nan nan nan nan nan nan nan nan nan nan nan nan nan nan nan nan nan nan nan nan nan nan nan nan nan nan nan nan nan
nan nan nan nan nan nan nan nan nan nan nan nan nan nan nan nan nan nan nan nan nan nan nan nan nan nan nan nan nan nan nan nan nan nan nan nan nan nan nan nan nan 15 15
nan nan nan nan nan nan nan nan nan nan nan nan nan nan nan nan nan nan nan nan nan nan nan nan nan nan nan nan nan nan nan nan nan nan nan nan 16 nan nan 12 13 12 13
nan nan nan nan nan nan nan nan nan nan nan nan nan nan nan nan nan nan nan nan nan nan nan nan nan nan nan nan nan nan nan nan nan nan nan 12 7 nan nan nan 1 3 8
nan nan nan nan nan nan nan nan nan nan nan nan nan nan nan nan nan nan nan nan nan nan nan nan nan nan nan nan nan nan nan nan nan nan nan nan nan nan nan nan nan 3 6
nan nan nan nan nan nan nan nan nan nan nan nan nan nan nan nan nan nan nan nan nan nan nan nan nan nan nan nan nan nan nan nan nan nan nan nan nan nan nan nan nan nan nan
nan nan nan nan nan nan nan nan nan nan nan nan nan nan nan nan nan nan nan nan nan nan nan nan nan nan nan nan nan nan nan nan nan nan nan nan nan nan nan nan nan nan nan
nan nan nan nan nan nan nan nan nan nan nan nan nan nan 18 nan nan nan nan nan nan nan nan nan nan nan nan nan nan nan nan nan nan nan nan nan nan nan nan nan nan nan nan
nan nan nan nan nan nan nan nan nan nan nan nan 17 nan nan nan nan nan nan nan nan nan nan nan nan nan nan nan nan nan nan nan nan nan nan nan nan nan nan nan nan nan nan
23 nan nan nan nan nan nan nan nan nan nan 14 nan nan nan nan nan nan nan nan nan nan nan nan nan nan nan nan nan nan nan nan nan nan nan nan nan nan nan nan nan nan nan
nan nan nan nan nan nan nan nan nan 15 13 11 11 9 nan nan nan nan nan nan nan nan nan nan nan nan nan nan nan nan nan nan nan nan nan nan nan nan nan nan nan nan nan
nan nan nan nan nan nan nan nan nan nan nan nan nan nan nan nan nan nan nan nan nan nan nan nan nan nan nan nan nan nan nan nan nan nan nan nan nan nan nan nan nan nan nan
nan nan nan nan nan nan nan nan nan nan nan nan nan nan nan nan nan nan nan nan nan nan nan nan nan nan nan nan nan nan nan nan nan nan nan nan nan nan nan nan nan nan nan
nan nan nan nan nan nan nan nan nan nan nan nan nan nan nan nan nan nan nan nan nan nan nan nan nan nan nan nan nan nan nan nan nan nan nan nan nan nan nan nan nan nan nan
Wind_Direction
226 280 289 292 297 296 298 301 305 308 311 307 302 nan nan nan nan nan nan nan nan nan nan nan nan 300 nan nan nan nan nan nan 283 nan nan 267 263 260 257 259 262 264 267
310 298 277 281 291 288 289 297 304 308 nan nan nan nan nan nan nan nan nan nan nan nan nan nan nan nan 304 305 nan 299 nan 285 nan nan 265 265 265 258 255 253 256 259 259
301 295 305 289 287 285 287 293 nan nan nan nan nan nan nan nan nan nan nan nan nan nan nan nan nan nan 316 315 312 305 302 301 288 281 273 273 272 266 260 258 254 255 254
296 299 309 305 288 281 289 298 nan nan nan nan nan nan nan nan nan nan nan nan nan nan nan nan nan nan 320 318 321 331 336 334 326 299 287 281 nan 283 279 268 265 261 257
299 298 305 303 289 290 293 nan nan nan nan nan nan nan nan nan nan nan nan nan nan nan nan nan nan nan nan nan nan nan 331 338 nan nan nan nan 289 281 282 nan 273 267 260
313 304 300 305 296 298 nan nan nan nan nan nan nan nan nan nan nan nan nan nan nan nan nan nan nan nan nan nan nan nan nan nan 333 324 nan nan 300 286 279 272 269 267 267
304 301 303 297 293 nan nan nan nan nan nan nan nan nan nan nan nan nan nan nan nan nan nan nan nan nan nan nan nan nan nan nan nan nan 340 317 303 289 276 267 263 258 253
nan nan nan nan nan nan nan nan nan nan nan nan nan nan nan nan nan nan nan nan nan nan nan nan nan nan nan nan nan nan nan nan nan nan nan 321 303 300 284 272 265 260 251
nan nan nan nan nan nan nan nan nan nan nan nan nan nan nan nan nan nan nan nan nan nan nan nan nan nan nan nan nan nan nan nan nan nan nan nan nan nan nan nan 281 267 256
nan nan nan nan nan nan nan nan nan nan nan nan nan nan nan nan nan nan nan nan nan nan nan nan nan nan nan nan nan nan nan nan nan nan nan nan nan nan nan nan nan 272 270
nan nan nan nan nan nan nan nan nan nan nan nan nan nan nan nan nan nan nan nan nan nan nan nan nan nan nan nan nan nan nan nan nan nan nan nan nan nan nan nan nan 280 278
nan nan nan nan nan nan nan nan nan nan nan nan nan nan nan nan nan nan nan nan nan nan nan nan nan nan nan nan nan nan nan nan nan nan nan nan nan nan nan nan nan nan 266
nan nan nan nan nan nan nan nan nan nan nan nan nan nan nan nan nan nan nan nan nan nan nan nan nan nan nan nan nan nan nan nan nan nan nan nan nan nan nan nan nan nan nan
nan nan nan nan nan nan nan nan nan nan nan nan nan nan nan nan nan nan nan nan nan nan nan nan nan nan nan nan nan nan nan nan nan nan nan nan nan nan nan nan nan 284 253
nan nan nan nan nan nan nan nan nan nan nan nan nan nan nan nan nan nan nan nan nan nan nan nan nan nan nan nan nan nan nan nan nan nan nan nan 287 nan nan 290 304 271 246
nan nan nan nan nan nan nan nan nan nan nan nan nan nan nan nan nan nan nan nan nan nan nan nan nan nan nan nan nan nan nan nan nan nan nan 266 276 nan nan nan 273 262 218
nan nan nan nan nan nan nan nan nan nan nan nan nan nan nan nan nan nan nan nan nan nan nan nan nan nan nan nan nan nan nan nan nan nan nan nan nan nan nan nan nan 141 185
nan nan nan nan nan nan nan nan nan nan nan nan nan nan nan nan nan nan nan nan nan nan nan nan nan nan nan nan nan nan nan nan nan nan nan nan nan nan nan nan nan nan nan
nan nan nan nan nan nan nan nan nan nan nan nan nan nan nan nan nan nan nan nan nan nan nan nan nan nan nan nan nan nan nan nan nan nan nan nan nan nan nan nan nan nan nan
nan nan nan nan nan nan nan nan nan nan nan nan nan nan 328 nan nan nan nan nan nan nan nan nan nan nan nan nan nan nan nan nan nan nan nan nan nan nan nan nan nan nan nan
nan nan nan nan nan nan nan nan nan nan nan nan 333 nan nan nan nan nan nan nan nan nan nan nan nan nan nan nan nan nan nan nan nan nan nan nan nan nan nan nan nan nan nan
343 nan nan nan nan nan nan nan nan nan nan 350 nan nan nan nan nan nan nan nan nan nan nan nan nan nan nan nan nan nan nan nan nan nan nan nan nan nan nan nan nan nan nan
nan nan nan nan nan nan nan nan nan 13 14 16 19 22 nan nan nan nan nan nan nan nan nan nan nan nan nan nan nan nan nan nan nan nan nan nan nan nan nan nan nan nan nan
nan nan nan nan nan nan nan nan nan nan nan nan nan nan nan nan nan nan nan nan nan nan nan nan nan nan nan nan nan nan nan nan nan nan nan nan nan nan nan nan nan nan nan
nan nan nan nan nan nan nan nan nan nan nan nan nan nan nan nan nan nan nan nan nan nan nan nan nan nan nan nan nan nan nan nan nan nan nan nan nan nan nan nan nan nan nan
nan nan nan nan nan nan nan nan nan nan nan nan nan nan nan nan nan nan nan nan nan nan nan nan nan nan nan nan nan nan nan nan nan nan nan nan nan nan nan nan nan nan nan